Location: Unspecified
(43.4354°N, 0.0000°E)
Time: 22:07:26
(UTC+00:00)

Tiros 1 despin weight - Pass Details

Date: 29 June 2019
Orbit: 594 x 642 km, 48.2° (Epoch: 15 July)

Event Time Altitude Azimuth Distance (km) Brightness Sun altitude
Rises 20:50:50 0° 244° (WSW) 2,879 ? -10.0°
Reaches altitude 10° 20:53:09 10° 245° (WSW) 1,967 ? -10.3°
Maximum altitude 20:57:41 89° 338° (NNW) 612 ? -10.9°
Drops below altitude 10° 21:02:10 10° 66° (ENE) 1,946 ? -11.4°
Sets 21:04:26 0° 66° (ENE) 2,844 ? -11.7°
